OBJECT D, 62728

Orbit data source: Space-Track

You're viewing an Uncataloged Satellite

Recently launched and/or uncataloged satellites may have evolving metadata. Metadata may include but not limited to: Owner, Maufacturer, Bus, Motor, and Mission.

OBJECT D, 62728 is a satellite owned by CASC (CN) in SSO that was launched on Fri, 17 Jan 2025 UTC launched from the Jiuquan Satellite Launch Center, China (JSC). Unknown objects in Earth's orbit typically refer to objects detected orbiting the Earth but have not yet been identified or cataloged. These objects could be anything from previously untracked satellites, spent rocket stages, debris from satellite collisions, or even natural meteoroids temporarily captured by Earth's gravity.

Loading next visibility...
OBJECT D details
Identifier
62728, 2025-012D
Orbit
SSO
Last TLE update9 hours ago
Origin
Flag of CNCASC (CN / PRC)
ManufacturerBWYIC
MissionSpacecraft
Bus & MotorCZ-2 STAGE 2, Unknown motor
Mass4,006 kg wet, 4,006 kg dry
Launch date (UTC)
2025-01-17 (1 month ago)
Launch vehicleUnknown
Launch site
Jiuquan Satellite Launch Center, China (JSC)
Object typeUnknown
Shape & HBRUnknown
Radar Cross SectionLarge (>1 m²)

Expand to show TLE details & history

TLE from 9 hours ago
0 OBJECT D
1 62728U 25012D   25047.13784330  .00036350  00000-0  18963-2 0  9998
2 62728  97.4748 122.6003 0009392 157.0800 203.0853 15.15811760  4509
Epoch: 2025-02-16T03:18Z
Definitive object data (Epoch: 2025-02-16T03:18:29.661Z)
Latitude-0.00006°
Longitude-73.39849°
Altitude527.559 km
Speed7.596 km/s
True Right ascension08h 10m 24s
True Declination0° 00' 00"
Sunlit
Object was in full shadow at TLE epoch
Visualization TLE readout
Latitude-49.19758°
Longitude-64.32362°
Altitude543.416 km
Speed7.586 km/s
Apparent Right ascension05h 56m 50s
Apparent Declination-52° 20' 10"
Sunlit
Object is in full shadow
Visualization observer readout
Local Sidereal Time15:22:16
Azimuth231.739° WSW
Elevation-60.926°
Doppler factor1
Orbital elements
Apogee altitude521.964 km
Perigee altitude509.015 km
Semi-major axis6,893.627 km
Eccentricity0.0009392
Inclination97.4748°
RAAN122.6003°
Arg. of periapsis157.08°
True anomaly203.04315°
Mean anomaly203.0853°
Eccentric anomaly203.06422°
Mean motion3.79203 °/min
BSTAR0.0018963
Orbital period94.94 mins
Loading maneuver chart data...
Loading historical data...
Loading historical data...
Loading historical data...
Loading historical data...
Loading historical data...
Loading historical data...
Loading historical data...
Other satellites on launch #12 in the year 2025 (2025-01-17 UTC)

OBJECT D Visibility forecast

Observer location: undefined°, undefined

Span
Click to sort rows by Start time (UTC) header in descending order
Start Az.
Max El. time (UTC)
Max El. Az.
Max El.
End time (UTC)
End Az.
6 mins2025-02-16 18:07:42.931Z356.739° N2025-02-16 18:10:42.931Z279.582° WNW36.38°2025-02-16 18:13:42.931Z213.587° SW
6 mins2025-02-17 04:47:42.931Z154.001° SSE2025-02-17 04:49:42.931Z116.862° SE40.744°2025-02-17 04:53:42.931Z354.208° N
|